Wind_Speed
9 8 8 8 8 8 8 8 8 8 9 9 9 8 8 9 10 10 10 11 11 11 11 12 12 13 14 14 14 13 14 14 14 15 16 15 14 14 14 14 14 14 14 14
9 8 8 8 9 9 9 9 8 8 9 9 9 9 10 10 10 10 10 11 11 11 11 11 12 13 13 14 14 14 13 13 13 14 14 14 14 14 14 15 15 15 15 15
9 8 8 8 9 9 9 9 8 8 9 10 10 9 9 9 10 10 11 11 12 12 12 12 12 13 13 13 13 14 14 14 14 14 14 14 15 14 15 15 15 15 15 15
9 8 8 8 9 9 9 9 9 9 9 10 11 10 8 9 10 10 10 11 12 12 11 11 12 13 13 13 13 14 15 15 15 15 15 15 16 16 16 16 15 15 15 16
9 9 9 9 8 9 9 9 10 10 10 10 10 11 9 9 10 10 11 11 11 11 11 10 11 13 13 13 13 14 15 16 16 16 16 16 17 17 17 16 16 16 16 16
10 10 10 9 9 9 9 10 10 11 10 10 10 11 10 10 10 10 11 11 11 11 11 12 12 12 13 14 14 15 15 16 16 17 17 17 17 17 18 17 17 17 18 18
11 11 11 11 10 10 10 10 11 11 11 11 11 12 10 10 10 10 10 11 11 11 12 12 12 12 13 14 14 15 15 16 16 17 17 17 17 18 18 18 18 19 19 20
12 11 11 11 11 11 11 12 12 13 13 12 12 12 11 11 11 10 11 11 11 11 11 11 12 13 14 14 15 15 16 16 16 17 17 17 17 18 19 20 20 21 21 21
12 11 12 12 12 12 13 13 13 14 15 14 13 12 11 11 11 11 11 11 11 12 12 12 12 13 14 15 15 16 16 16 17 18 18 18 19 19 20 20 21 21 22 22
14 13 12 12 13 13 14 14 14 15 15 15 14 13 11 11 12 12 12 12 12 12 13 13 14 14 15 15 16 16 16 17 18 18 19 19 19 20 20 20 21 21 21 21
13 13 12 12 13 14 14 15 15 15 15 15 15 13 12 12 12 12 12 12 12 13 13 14 15 15 16 16 16 17 17 17 18 18 19 19 20 20 21 21 21 21 21 21
14 14 13 12 12 14 14 14 15 15 15 15 14 12 12 12 12 12 12 13 13 14 14 15 15 16 17 17 17 17 17 18 18 19 19 19 19 20 21 21 21 21 22 21
15 15 14 14 13 13 14 14 15 15 15 14 14 13 13 14 14 14 14 14 15 16 16 17 17 17 18 18 18 18 18 19 19 19 19 20 20 20 20 21 20 21 21 21
16 16 15 15 15 15 15 15 16 16 16 16 15 14 14 15 15 15 16 16 16 17 17 18 18 17 18 18 19 19 20 20 20 19 20 20 20 20 20 20 20 20 21 21
18 18 17 16 17 17 17 17 17 18 17 18 17 17 17 16 17 17 18 18 18 19 19 19 19 19 20 20 20 20 21 20 20 20 20 20 20 20 20 20 20 21 21 21
18 19 18 18 19 19 19 18 17 18 19 19 19 18 18 19 19 19 20 20 20 20 20 21 21 21 21 21 21 21 21 22 22 21 21 21 21 20 21 21 21 22 21 21
19 20 20 20 21 21 20 19 20 20 19 20 20 19 20 20 21 21 21 21 21 22 22 23 23 23 23 23 22 22 22 22 22 22 22 22 22 22 23 23 23 22 22 22
21 21 21 22 22 23 22 22 22 21 21 21 21 21 21 22 22 22 22 23 23 23 23 24 23 23 23 23 23 22 22 22 22 22 23 23 24 24 24 24 23 22 22 23
22 22 22 22 24 24 23 22 22 22 22 22 22 22 23 23 23 23 23 23 23 23 23 23 24 24 24 24 24 23 23 22 22 23 24 24 24 24 24 24 23 23 23 23
22 23 23 23 23 23 22 22 22 23 23 23 23 24 23 24 23 23 24 24 24 24 24 24 25 25 25 25 25 24 24 24 23 23 24 24 25 25 24 24 24 24 24 24
22 23 23 23 23 22 21 22 22 22 22 22 23 23 23 24 23 23 24 25 25 25 25 25 25 25 25 25 25 25 24 24 24 24 25 25 26 26 26 26 26 26 25 25
21 22 22 22 22 21 21 21 21 21 22 22 22 23 24 24 24 25 25 25 25 25 25 25 25 25 25 25 25 25 25 25 25 25 26 26 26 26 26 26 26 27 27 27
21 21 22 22 22 22 21 21 21 21 22 22 23 24 25 25 26 26 25 25 25 26 26 25 25 25 25 25 25 26 25 25 26 26 26 27 27 27 26 26 26 27 27 28
21 22 23 23 22 22 22 21 22 23 22 22 23 24 25 25 25 25 25 25 25 25 25 25 25 25 25 25 25 26 26 26 26 26 26 26 26 26 26 27 27 28 28 28
22 23 23 23 22 22 22 22 22 22 22 23 23 24 25 25 25 25 25 25 25 25 25 25 25 25 25 25 25 25 25 25 25 26 26 25 25 25 26 26 27 27 28 29
21 22 23 23 22 22 22 23 22 22 22 23 24 25 25 26 26 26 25 26 25 25 25 24 24 24 24 24 24 25 25 25 25 25 25 25 25 25 26 26 27 27 28 28
Wind_Direction
254 259 265 266 263 262 263 264 268 272 273 274 273 277 282 283 283 283 281 280 280 279 275 274 275 276 274 273 275 274 273 275 275 276 278 277 274 274 275 277 277 275 275 271
254 260 264 260 256 262 266 266 269 270 271 274 277 279 283 282 282 281 279 278 280 278 276 274 277 276 275 275 276 275 274 276 279 278 279 275 276 277 279 279 276 276 276 273
257 260 262 260 261 263 264 267 271 273 276 278 279 278 285 282 283 284 283 282 281 278 279 277 278 276 275 277 277 277 278 280 282 281 281 280 280 278 278 279 277 277 276 275
253 256 259 261 262 261 258 263 267 272 272 276 280 280 282 285 286 290 291 288 285 280 279 276 279 280 278 277 277 277 278 281 281 281 282 281 279 277 278 276 275 276 277 276
252 255 258 259 259 258 257 261 266 271 274 276 280 279 283 284 288 290 293 293 290 284 281 279 284 284 281 279 278 278 279 279 279 280 282 282 282 281 280 276 275 276 276 275
250 254 258 261 260 258 257 259 265 270 273 274 278 281 284 291 294 295 297 296 294 287 285 284 284 285 284 283 281 280 281 280 279 280 282 282 282 281 281 278 275 274 274 275
249 252 259 263 261 259 259 260 263 266 269 274 279 281 289 290 293 293 295 296 293 288 285 284 285 286 286 287 285 284 283 282 280 281 283 284 283 282 280 280 279 278 276 275
252 251 256 258 258 259 260 262 265 270 272 274 276 278 287 287 288 292 294 293 291 289 285 286 287 287 286 287 286 286 287 285 282 283 285 287 286 284 283 281 281 280 279 278
257 253 254 254 256 256 258 259 265 270 274 278 276 281 281 283 286 291 293 291 289 288 289 289 290 290 288 288 287 287 288 287 286 286 286 287 287 286 285 284 282 281 279 279
260 256 251 254 254 252 254 258 262 266 273 279 280 281 281 280 283 287 288 287 287 289 289 290 291 291 290 288 287 286 287 288 289 289 289 287 286 286 285 285 283 280 279 278
262 261 257 253 252 253 255 258 262 267 271 277 280 280 281 279 281 283 284 284 284 287 288 287 290 289 290 289 287 285 285 287 288 290 290 289 288 289 287 286 283 281 280 279
261 263 260 257 254 254 255 257 261 265 270 273 276 280 279 279 279 282 283 281 281 284 285 285 288 288 290 289 287 285 285 287 289 290 291 293 293 291 290 288 284 281 281 280
259 261 261 259 256 254 253 256 259 263 265 268 273 279 277 277 278 281 281 280 281 283 285 286 287 286 287 288 288 288 288 287 289 290 290 291 293 292 290 289 286 282 281 280
258 259 262 263 262 259 257 255 255 258 261 267 271 274 275 276 279 282 281 281 283 284 285 286 286 286 288 289 290 290 287 286 287 288 289 290 291 292 291 290 288 284 282 280
260 258 259 259 260 259 258 256 255 256 260 265 268 269 273 275 278 280 281 282 283 285 287 287 288 287 288 288 288 288 288 287 286 287 287 288 290 290 290 289 289 286 283 281
258 256 259 256 258 259 259 258 258 259 261 264 266 267 272 274 276 278 279 281 281 284 285 285 286 286 286 286 287 288 288 287 287 286 287 288 288 288 288 289 289 285 282 280
261 261 260 258 257 258 259 260 261 262 263 263 264 267 271 271 273 275 278 280 282 281 284 284 287 285 286 287 288 288 289 288 287 286 285 286 287 287 287 286 286 284 283 282
263 262 262 260 260 260 262 261 263 263 263 264 265 265 267 270 272 274 276 278 279 279 282 285 286 285 285 287 288 289 289 289 288 287 285 286 286 287 286 287 285 283 283 281
262 261 262 262 263 264 264 266 266 265 265 265 268 269 269 270 273 276 278 279 279 279 280 281 282 283 284 286 287 287 287 287 287 287 286 287 288 287 287 287 285 283 282 282
263 261 262 265 266 267 268 267 268 267 265 266 269 272 273 272 274 276 277 277 279 279 279 278 279 281 283 285 285 286 286 286 286 286 286 286 286 287 286 285 283 282 281 281
265 264 264 267 268 268 268 270 269 268 268 268 270 272 274 275 277 278 278 279 279 279 279 279 279 280 282 283 284 284 285 286 285 284 285 286 287 287 286 284 283 283 282 281
267 267 267 270 270 269 269 268 268 269 270 269 270 272 273 275 278 279 279 280 280 280 280 280 280 280 281 282 283 283 284 284 284 283 283 284 286 286 286 285 284 284 284 283
266 267 268 270 272 271 270 268 268 268 270 270 271 273 276 279 280 279 281 282 282 281 280 281 282 281 281 281 282 283 284 284 285 285 284 284 285 286 286 285 285 285 286 285
265 266 267 269 271 270 269 266 267 268 270 272 273 275 277 280 280 280 282 283 283 283 282 283 283 283 282 282 283 284 284 286 287 286 286 286 286 286 286 285 286 285 286 286
266 268 270 272 272 270 267 269 269 270 272 272 274 276 276 278 280 281 283 283 283 283 283 284 284 284 284 283 284 285 286 288 288 288 288 289 288 287 285 285 286 287 287 288
268 271 272 272 270 269 268 269 268 270 273 275 277 279 280 281 281 282 282 282 282 282 283 284 283 284 284 284 284 285 286 288 289 288 289 290 290 290 289 289 288 288 289 289
Height
5835 5836 5836 5836 5836 5837 5836 5837 5837 5837 5837 5837 5837 5837 5837 5836 5836 5836 5836 5835 5835 5835 5835 5834 5834 5833 5833 5833 5833 5833 5832 5832 5831 5830 5830 5829 5829 5829 5828 5827 5827 5826 5826 5826
5833 5833 5834 5833 5833 5834 5834 5834 5834 5834 5834 5834 5834 5834 5833 5833 5833 5833 5832 5832 5832 5831 5831 5831 5830 5830 5829 5829 5828 5829 5828 5828 5827 5827 5826 5825 5825 5824 5824 5823 5823 5822 5822 5821
5830 5832 5831 5831 5831 5831 5831 5831 5832 5832 5831 5831 5831 5832 5831 5830 5830 5829 5828 5828 5828 5827 5827 5827 5827 5826 5826 5825 5825 5825 5824 5824 5824 5823 5822 5821 5820 5820 5820 5819 5818 5818 5817 5817
5827 5828 5828 5828 5828 5829 5829 5829 5829 5829 5829 5829 5829 5829 5829 5827 5827 5826 5825 5825 5824 5824 5824 5823 5823 5823 5822 5822 5821 5821 5820 5820 5819 5819 5818 5817 5816 5816 5815 5814 5814 5813 5812 5812
5825 5825 5825 5826 5826 5826 5827 5826 5826 5826 5826 5826 5825 5825 5826 5824 5823 5823 5822 5821 5820 5820 5820 5820 5819 5819 5818 5818 5817 5817 5816 5816 5815 5814 5814 5813 5812 5811 5809 5809 5809 5808 5808 5807
5822 5822 5823 5823 5823 5823 5824 5824 5823 5823 5823 5823 5822 5821 5822 5821 5820 5819 5819 5818 5817 5816 5816 5816 5816 5815 5815 5814 5813 5813 5812 5811 5811 5810 5809 5809 5807 5806 5805 5804 5803 5802 5802 5801
5819 5819 5819 5820 5820 5820 5821 5821 5821 5820 5820 5820 5819 5818 5819 5817 5816 5816 5815 5815 5814 5813 5813 5812 5812 5812 5811 5810 5809 5809 5808 5807 5806 5805 5805 5804 5803 5801 5800 5798 5797 5796 5796 5795
5815 5816 5816 5816 5817 5817 5817 5818 5818 5818 5817 5816 5815 5814 5815 5814 5813 5812 5812 5811 5810 5810 5810 5809 5808 5808 5807 5806 5805 5804 5804 5803 5802 5800 5799 5798 5797 5796 5794 5793 5792 5790 5789 5789
5812 5813 5813 5813 5813 5814 5813 5813 5814 5814 5812 5812 5811 5811 5811 5810 5809 5809 5808 5808 5807 5806 5806 5805 5804 5803 5803 5802 5801 5800 5799 5798 5797 5795 5794 5793 5791 5790 5788 5787 5785 5784 5783 5782
5808 5809 5810 5809 5809 5810 5810 5810 5810 5809 5808 5807 5808 5808 5808 5807 5806 5806 5805 5804 5804 5803 5802 5802 5801 5800 5799 5798 5797 5795 5794 5793 5792 5790 5789 5787 5785 5784 5782 5781 5779 5778 5777 5776
5804 5805 5806 5806 5806 5805 5806 5806 5805 5805 5805 5804 5803 5806 5804 5803 5803 5802 5802 5801 5800 5799 5799 5798 5797 5795 5794 5793 5792 5790 5789 5788 5786 5785 5783 5781 5779 5777 5776 5774 5773 5772 5770 5769
5800 5801 5801 5802 5802 5802 5801 5801 5801 5801 5801 5800 5799 5803 5800 5800 5799 5798 5798 5797 5796 5795 5794 5793 5792 5791 5789 5788 5786 5785 5784 5782 5781 5779 5777 5775 5774 5772 5770 5768 5766 5765 5764 5763
5796 5796 5796 5797 5799 5799 5798 5797 5797 5797 5797 5796 5796 5799 5796 5795 5795 5794 5793 5793 5792 5791 5790 5789 5788 5786 5785 5783 5781 5779 5778 5777 5775 5773 5772 5770 5768 5766 5764 5762 5760 5759 5757 5756
5792 5792 5793 5794 5793 5793 5793 5793 5793 5793 5792 5792 5792 5792 5792 5791 5790 5789 5788 5788 5787 5786 5785 5784 5782 5781 5779 5778 5776 5774 5772 5770 5769 5768 5766 5764 5762 5760 5758 5756 5754 5753 5751 5750
5787 5787 5787 5788 5788 5788 5788 5788 5788 5788 5788 5788 5788 5787 5787 5786 5785 5784 5783 5782 5782 5780 5779 5778 5776 5775 5773 5772 5770 5768 5766 5764 5763 5761 5760 5758 5757 5754 5752 5750 5748 5747 5745 5744
5781 5782 5782 5782 5782 5782 5782 5783 5783 5783 5783 5782 5782 5782 5781 5781 5780 5779 5778 5776 5775 5774 5773 5772 5770 5769 5767 5765 5764 5762 5760 5758 5756 5755 5753 5752 5750 5748 5746 5744 5742 5741 5739 5738
5776 5776 5777 5777 5777 5776 5777 5778 5777 5777 5777 5777 5776 5777 5775 5774 5773 5772 5771 5770 5769 5768 5767 5765 5763 5762 5760 5759 5757 5755 5754 5752 5750 5748 5746 5745 5743 5742 5740 5738 5736 5735 5733 5732
5770 5769 5769 5770 5771 5770 5773 5771 5770 5770 5770 5770 5770 5769 5768 5768 5767 5766 5765 5764 5762 5761 5760 5758 5757 5755 5754 5752 5750 5749 5747 5745 5743 5741 5739 5738 5736 5735 5733 5731 5730 5728 5726 5725
5763 5763 5763 5763 5763 5764 5765 5764 5764 5764 5764 5763 5763 5762 5762 5761 5760 5759 5758 5756 5755 5754 5752 5751 5749 5748 5746 5745 5743 5741 5740 5738 5736 5734 5732 5731 5729 5728 5726 5724 5722 5721 5719 5718
5756 5756 5757 5756 5756 5756 5759 5758 5757 5758 5757 5757 5756 5755 5754 5754 5753 5753 5751 5749 5747 5746 5745 5743 5742 5740 5739 5737 5735 5734 5732 5731 5729 5727 5725 5724 5722 5720 5718 5717 5715 5714 5712 5711
5750 5749 5750 5749 5748 5749 5751 5750 5750 5751 5751 5750 5749 5748 5747 5746 5746 5744 5743 5741 5739 5738 5736 5735 5734 5732 5731 5729 5728 5726 5725 5723 5722 5720 5718 5716 5714 5713 5711 5709 5707 5706 5705 5703
5742 5742 5742 5742 5742 5744 5743 5742 5743 5743 5742 5742 5741 5740 5740 5739 5737 5736 5734 5732 5731 5730 5728 5727 5726 5724 5723 5721 5720 5718 5717 5715 5714 5712 5710 5708 5706 5704 5703 5701 5699 5698 5696 5695
5736 5736 5736 5736 5737 5736 5735 5735 5735 5734 5734 5734 5734 5733 5732 5730 5729 5728 5726 5725 5723 5722 5720 5719 5718 5717 5715 5714 5712 5710 5709 5707 5706 5704 5702 5700 5698 5696 5694 5692 5691 5689 5688 5686
5730 5729 5729 5728 5729 5728 5728 5727 5727 5727 5727 5726 5726 5725 5724 5723 5721 5720 5719 5717 5716 5714 5712 5711 5710 5708 5707 5705 5704 5702 5701 5699 5697 5696 5694 5692 5690 5688 5686 5684 5682 5681 5679 5677
5723 5722 5721 5721 5721 5721 5721 5720 5720 5719 5719 5719 5718 5717 5716 5715 5714 5712 5711 5709 5708 5706 5704 5703 5702 5700 5699 5698 5696 5695 5693 5691 5690 5687 5685 5683 5682 5680 5678 5676 5674 5672 5670 5668
5716 5715 5715 5714 5714 5714 5714 5713 5713 5712 5712 5711 5710 5709 5708 5707 5706 5704 5703 5701 5700 5698 5697 5695 5694 5693 5691 5690 5689 5687 5686 5684 5682 5680 5678 5676 5674 5672 5670 5668 5666 5664 5662 5660